{"data":{"norad_id":64886,"epoch":"2026-09-21T21:43:03.410112Z","epoch_age_seconds":49906,"freshness":"FRESH","line1":"1 64886U 25155L   26264.90490058  .00031828  00000+0  61480-3 0  9998","line2":"2 64886  97.4553 238.2567 0007285 144.9054 215.2677 15.47709254 95861","mean_motion":15.47709254,"eccentricity":0.0007285,"inclination_deg":97.4553,"raan_deg":238.2567,"arg_perigee_deg":144.9054,"mean_anomaly_deg":215.2677,"bstar":0.0006148,"rev_number":9586,"period_min":93.040730762472,"perigee_km":418.47413933527,"apogee_km":428.38402111416,"semimajor_km":6801.5660802247,"source":"CELESTRAK","updated_at":"2026-09-22T09:00:30.016144Z"}}